SICH-1
1 23657U 95046A   06187.73354474  .00000067  00000-0  55664-5 0  7921
2 23657 082.5283 039.6711 0022772 302.0268 057.8717 14.81369521584889
NOAA-15
1 25338U 98030A   06187.19808852  .00000031  00000-0  31666-4 0  5721
2 25338 098.5146 188.9308 0009988 323.8792 036.1740 14.24589854423427
RESURS
1 25394U 98043A   06186.76265125  .00000011  00000-0  22981-4 0 04209
2 25394 098.4924 249.0264 0002199 102.6829 257.4596 14.24105484415042
FENGYUN1
1 25730U 99025A   06186.54823211 -.00000001  00000-0  22597-4 0 07695
2 25730 098.6260 178.4006 0015468 089.2357 271.0596 14.11811808368600
OKEAN-0
1 25860U 99039A   06187.56610899  .00000062  00000-0  16787-4 0  7929
2 25860 097.7319 200.9957 0001914 067.7224 292.4187 14.73374122374601
NOAA-16
1 26536U 00055A   06187.27317614 -.00000122  00000-0 -41303-4 0  9470
2 26536 099.0675 154.1166 0011474 067.3832 292.8562 14.12350969298272
NOAA-17
1 27453U 02032A   06187.49681262  .00000091  00000-0  58537-4 0  9664
2 27453 098.6201 259.3339 0012052 024.0860 336.0877 14.23791330209528
NOAA-18
1 28654U 05018A   06187.49549048 -.00000131  00000-0 -48816-4 0  5437
2 28654 098.7880 130.3594 0014289 162.9180 197.2465 14.10970477 58101
HUBBLE
1 20580U 90037B   06186.65857111  .00000338  00000-0  13517-4 0  6474
2 20580 028.4691 289.4684 0003335 023.2153 336.8588 15.00060452687878
UARS
1 21701U 91063B   06186.89795779  .00003266  00000-0  68007-4 0 08274
2 21701 056.9789 011.7795 0098308 243.5181 115.5775 15.43884711812193
PO-34
1 25520U 98064B   06186.83788201  .00000503  00000-0  15220-4 0  5054
2 25520 028.4584 266.3727 0005709 085.6154 274.5086 15.16742386424881
ISS
1 25544U 98067A   06187.98133102  .00014207  00000-0  92604-4 0  2429
2 25544 051.6309 085.5226 0010427 048.0289 131.1714 15.76149343436283
OO-38
1 26063U 00004C   06186.76027804 -.00000003  00000-0  19143-4 0  6595
2 26063 100.1889 121.1443 0037355 055.2083 305.2608 14.35770220337332
NO-45
1 26932U 01043D   06187.81489846 -.00000078  00000-0  18211-5 0  3550
2 26932 067.0514 316.8300 0008642 251.7828 108.2332 14.29528689248772
UWE-1
1 28892U 05043C   06187.73737343  .00000171  00000-0  45934-4 0  4948
2 28892 098.1627 085.6374 0018494 109.1329 251.1892 14.59370041 36829
CO-58
1 28895U 05043F   06187.72782544  .00000012  00000-0  12341-4 0  4774
2 28895 098.1631 085.7146 0018860 108.2253 252.1014 14.59421750 36706
NCUBE2
1 28897U 05043H   06186.26340540  .00000141  00000-0  39427-4 0 00920
2 28897 098.1619 084.2595 0018066 115.3441 244.9628 14.59577211028763
